x

8461490 - New London, Ct (nlnc3) Weather Station

11:18 - Sun 26th Feb 2017 All times are EST. -5 hours from GMT.

  • Wind
    6mph, 18mph gusts
  • Sea Temp 42°f
  • Luft Temp 42°f
  • Sea Pressure 1012.6mb
  • 8461490 - New London, Ct
  • 8461490 - New London, Ct

More Historic Weather Station data

Upgrade to MSW Pro to gain access to the past 30 days of data for over 8000 Wavebouys and Weather Stations around the globe.

Join Pro

Comparision Forecast

View Surf forecast
   
So 02/26 11:18 6 18 mph 1012.6mb 42f 42f
11:12 11 20 mph 1012.5mb 41f 41f
11:06 8 16 mph 1012.6mb 41f 42f
11:00 6 15 mph 1012.6mb 41f 41f
10:54 10 17 mph 1012.6mb 41f 40f
10:48 8 20 mph 1012.6mb 41f 40f
10:42 5 16 mph 1012.5mb 41f 41f
10:36 8 30 mph 1012.3mb 41f 41f
10:30 10 20 mph 1012.3mb 41f 40f
10:24 6 16 mph 1012.2mb 40f 41f
10:18 9 22 mph 1012.1mb 40f 40f
10:12 7 16 mph 1012.2mb 40f 40f
10:06 11 28 mph 1012.1mb 40f 39f
10:00 6 16 mph 1012mb 40f 40f
9:54 10 17 mph 1012mb 40f 40f
9:48 11 18 mph 1011.9mb 40f 39f
9:42 11 20 mph 1011.9mb 40f 40f
9:36 11 18 mph 1011.7mb 41f 40f
9:30 8 15 mph 1011.7mb 41f 40f
9:24 7 22 mph 1011.6mb 41f 39f
9:18 9 18 mph 1011.7mb 41f 39f
9:12 8 22 mph 1011.6mb 40f 38f
9:06 7 20 mph 1011.6mb 40f 38f
9:00 5 17 mph 1011.5mb 40f 39f
8:54 5 21 mph 1011.5mb 40f 39f
8:48 7 18 mph 1011.4mb 40f 38f
8:42 9 18 mph 1011.3mb 40f 38f
8:36 10 17 mph 1011.2mb 40f 38f
8:30 9 17 mph 1011.1mb 40f 38f
8:24 11 17 mph 1011.1mb 40f 38f
8:18 8 16 mph 1011mb 41f 38f
8:12 9 14 mph 1010.9mb 41f 38f
8:06 10 18 mph 1010.8mb 41f 38f
8:00 9 22 mph 1010.7mb 41f 38f
7:54 6 11 mph 1010.4mb 41f 38f
7:48 8 15 mph 1010.4mb 41f 38f
7:42 6 9 mph 1010.3mb 40f 38f
7:36 5 13 mph 1010.2mb 40f 38f
7:30 6 10 mph 1010.2mb 40f 38f
7:24 5 10 mph 1010.1mb 40f 38f
7:12 5 9 mph 1009.8mb 40f 37f
7:06 3 10 mph 1009.6mb 41f 37f
7:00 8 13 mph 1009.3mb 41f 38f
6:54 3 8 mph 1009.2mb 41f 37f
6:48 6 8 mph 1009mb 41f 38f
6:42 2 6 mph 1008.8mb 40f 37f
6:36 3 9 mph 1008.6mb 40f 37f
6:30 3 7 mph 1008.4mb 40f 37f
6:24 5 7 mph 1008.2mb 40f 37f
6:18 3 8 mph 1008.1mb 40f 37f
6:12 2 8 mph 1008.1mb 40f 37f
6:06 3 9 mph 1007.9mb 40f 37f
6:00 3 8 mph 1007.8mb 40f 37f
5:54 3 10 mph 1007.8mb 40f 37f
5:48 5 8 mph 1007.7mb 40f 37f
5:42 3 8 mph 1007.5mb 40f 37f
5:36 3 6 mph 1007.4mb 40f 37f
5:30 2 6 mph 1007.3mb 40f 37f
5:24 3 8 mph 1007.2mb 40f 38f
5:18 2 7 mph 1007.1mb 40f 38f
5:12 5 9 mph 1007mb 41f 38f
5:06 5 8 mph 1006.9mb 41f 38f
5:00 3 9 mph 1006.7mb 41f 38f
4:54 3 9 mph 1006.6mb 42f 38f
4:48 5 16 mph 1006.4mb 43f 38f
4:42 6 9 mph 1006.2mb 42f 38f
4:36 2 9 mph 1006.1mb 43f 38f
4:30 3 8 mph 1005.9mb 43f 38f
4:24 3 9 mph 1005.8mb 43f 39f
4:18 5 8 mph 1005.8mb 43f 39f
4:12 2 14 mph 1005.6mb 43f 39f
4:06 6 11 mph 1005.4mb 44f 39f
4:00 3 9 mph 1005.2mb 44f 39f
3:54 8 20 mph 1005mb 44f 39f
3:48 3 14 mph 1004.9mb 44f 39f
3:42 6 17 mph 1004.8mb 44f 39f
3:36 2 14 mph 1004.6mb 44f 39f
3:30 7 14 mph 1004.5mb 43f 40f
3:24 6 15 mph 1004.5mb 42f 40f
3:18 7 11 mph 1004.3mb 43f 40f
3:12 7 11 mph 1004.3mb 44f 40f
3:06 6 14 mph 1004.1mb 43f 40f
3:00 10 20 mph 1004mb 43f 41f
2:54 8 14 mph 1004mb 43f 41f
2:48 6 11 mph 1003.9mb 44f 41f
2:42 11 20 mph 1003.6mb 44f 41f
2:36 9 15 mph 1003.3mb 44f 42f
2:30 6 13 mph 1003.3mb 43f 41f
2:24 6 13 mph 1003.4mb 44f 42f
2:18 7 20 mph 1003.3mb 44f 42f
2:12 5 14 mph 1003.1mb 44f 42f
2:06 6 13 mph 1003.3mb 44f 42f
2:00 8 16 mph 1003.4mb 44f 42f
1:54 6 11 mph 1003mb 43f 42f
1:48 8 16 mph 1002.8mb 43f 42f
1:42 7 22 mph 1002.6mb 42f 42f
1:36 7 16 mph 1002.1mb 43f 42f
1:30 8 17 mph 1001.9mb 43f 42f
1:24 9 21 mph 1001.6mb 43f 43f
1:18 7 17 mph 1001.6mb 43f 43f
1:12 8 15 mph 1000.7mb 43f 43f
1:06 9 14 mph 1000.5mb 44f 43f
1:00 8 15 mph 1001.3mb 43f 43f
12:54 6 13 mph 1001.7mb 43f 43f
12:48 8 18 mph 1000.8mb 43f 44f
12:42 8 15 mph 1000.5mb 43f 44f
12:36 5 14 mph 1000.7mb 43f 44f
12:30 10 16 mph 1000.3mb 43f 44f
12:24 10 17 mph 1000.3mb 42f 44f
12:18 10 18 mph 1000.3mb 41f 44f
12:12 8 16 mph 1000.4mb 41f 44f
Sa 02/25 11:54 8 14 mph 1001mb 41f 45f
11:48 8 17 mph 1000.8mb 41f 45f
11:42 7 11 mph 1000.3mb 41f 45f
11:36 7 15 mph 999.9mb 42f 46f
11:30 7 11 mph 999.9mb 41f 46f
11:24 6 11 mph 999.5mb 41f 46f
11:18 9 14 mph 999.1mb 41f 46f
11:12 9 11 mph 998.8mb 40f 46f
11:06 9 15 mph 999.5mb 41f 46f
11:00 13 17 mph 999.3mb 40f 47f
10:54 13 18 mph 999.6mb 40f 47f
10:48 13 17 mph 999.7mb 41f 47f
10:42 10 14 mph 999.7mb 41f 47f
10:36 11 18 mph 999.7mb 41f 47f
10:30 13 21 mph 999.7mb 40f 47f
10:24 13 23 mph 999.8mb 40f 47f
10:18 14 22 mph 999mb 41f 49f
10:12 6 10 mph 999mb 41f 50f
10:06 3 5 mph 998.6mb 40f 49f
10:00 2 3 mph 999.3mb 40f 49f
9:54 1 3 mph 999.4mb 40f 49f
9:48 2 3 mph 999.6mb 40f 50f
9:42 1 5 mph 999.2mb 40f 49f
9:36 2 3 mph 999.2mb 41f 49f
9:30 3
mph
999mb 41f 49f
9:24 3 5 mph 998.8mb 41f 49f
9:18 5 6 mph 999mb 40f 49f
9:12 6
mph
999.1mb 41f 48f
9:06 2
mph
999.3mb 40f 48f
9:00  -  6 mph 999.4mb 40f 49f
8:54 6 7 mph 999.8mb 41f 49f
8:48 6 7 mph 999.3mb 40f 49f
8:42 6 7 mph 999.1mb 40f 48f
8:36 6 7 mph 999mb 40f 48f
8:30 7 8 mph 999.1mb 40f 49f
8:24 6 7 mph 999.1mb 40f 49f
8:18 5 6 mph 999.2mb 41f 49f
8:12 6 7 mph 998.9mb 41f 49f
8:06 6 7 mph 998.7mb 41f 49f
8:00 6 7 mph 998.5mb 41f 49f
7:54 5 6 mph 998.4mb 41f 49f
7:48 5 6 mph 998.6mb 41f 49f
7:42 6
mph
998.7mb 41f 49f
7:36 5 6 mph 999.1mb 41f 49f
7:30 5 6 mph 999.2mb 41f 49f
7:24 6
mph
999.5mb 41f 49f
7:18 5
mph
999.5mb 41f 48f
7:12 3
mph
999.8mb 41f 48f
7:06 3 5 mph 999.9mb 41f 48f
7:00 2 3 mph 999.9mb 41f 48f
6:54 2 3 mph 1000mb 41f 48f
6:48 3 5 mph 1000.1mb 41f 48f
6:42 3 6 mph 1000.2mb 41f 49f
6:36 5 6 mph 1000.2mb 40f 49f
6:30 3 6 mph 1000.3mb 40f 49f
6:24 5 6 mph 1000.3mb 40f 49f
6:18 5
mph
1000.1mb 40f 49f
6:12 3 5 mph 1000.1mb 40f 49f
6:06 3 6 mph 1000mb 41f 48f
6:00 3 6 mph 999.9mb 41f 48f
5:54 5 6 mph 1000.1mb 41f 49f
5:48 5 6 mph 1000.1mb 41f 49f
5:42 5 6 mph 999.7mb 41f 49f
5:36 6 8 mph 999.6mb 41f 49f
5:30 5 7 mph 999.5mb 40f 50f
5:24 5 9 mph 999.4mb 40f 50f
5:18 6 9 mph 999.5mb 40f 50f
5:12 3 8 mph 999.7mb 40f 50f
5:06 7 14 mph 999.8mb 40f 50f
5:00 10 13 mph 999.7mb 40f 50f
4:54 7 13 mph 1000mb 40f 51f
4:48 7 9 mph 1000.3mb 40f 50f
4:42 6 13 mph 1000.3mb 40f 51f
4:36 6 9 mph 1000.4mb 40f 51f
4:30 8 11 mph 1000.6mb 40f 51f
4:24 9 14 mph 1000.7mb 40f 51f
4:18 10 14 mph 1000.9mb 40f 51f
4:12 11 14 mph 1001.3mb 40f 51f
4:06 11 16 mph 1001.4mb 40f 51f
4:00 10 16 mph 1001.6mb 40f 51f
3:54 11 16 mph 1001.6mb 40f 52f
3:48 13 16 mph 1001.7mb 41f 52f
3:42 11 14 mph 1002mb 40f 52f
3:36 10 15 mph 1002mb 41f 53f
3:30 10 16 mph 1002.1mb 41f 55f
3:24 8 11 mph 1002.1mb 41f 55f
3:18 8 10 mph 1002.3mb 41f 55f
3:12 7 10 mph 1002.3mb 41f 55f
3:06 7 14 mph 1002.5mb 42f 55f
3:00 10 13 mph 1002.6mb 42f 55f
2:54 10 13 mph 1002.6mb 42f 56f
2:48 8 13 mph 1002.8mb 42f 55f
2:42 6 10 mph 1003mb 42f 55f
2:36 6 8 mph 1003.3mb 42f 55f
2:30 6 9 mph 1003.6mb 42f 55f
2:24 6 8 mph 1003.8mb 42f 55f
2:18 6 9 mph 1003.8mb 42f 54f
2:12 8 10 mph 1003.9mb 42f 54f
2:06 7 10 mph 1004.2mb 42f 55f
2:00 7 14 mph 1004.1mb 41f 54f
1:54 8 10 mph 1004.3mb 41f 51f
1:48 8 9 mph 1004.6mb 41f 52f
1:42 8 9 mph 1004.8mb 41f 52f
1:36 8 11 mph 1004.9mb 41f 53f
1:30 8 11 mph 1005mb 41f 54f
1:24 8 10 mph 1005.1mb 41f 55f
1:18 8 10 mph 1005.1mb 41f 55f
1:12 8 9 mph 1005.2mb 41f 55f
1:06 7 9 mph 1005.3mb 41f 54f
1:00 7 9 mph 1005.4mb 41f 54f
12:54 8 11 mph 1005.6mb 41f 55f
12:48 9 11 mph 1005.8mb 41f 54f
12:42 10 14 mph 1005.9mb 41f 55f
12:36 9 14 mph 1006mb 41f 55f
12:30 9 11 mph 1006.1mb 41f 55f
12:24 9 11 mph 1006.2mb 41f 54f
12:18 10 11 mph 1006.3mb 41f 55f
12:12 10 11 mph 1006.4mb 41f 55f
12:06 9 11 mph 1006.4mb 41f 56f
12:00 9 11 mph 1006.5mb 41f 56f
11:54 9 11 mph 1006.8mb 41f 55f
11:36 8 9 mph 1007mb 41f 55f
11:30 8 11 mph 1007mb 41f 55f
11:24 10 14 mph 1007.1mb 41f 56f
11:18 8 11 mph 1007.2mb 41f 55f
11:12 8 10 mph 1007.3mb 41f 55f
10:54 8 10 mph 1007.7mb 40f 56f
10:48 8 9 mph 1007.7mb 40f 56f
10:42 7 9 mph 1007.8mb 40f 55f
10:36 7 9 mph 1007.8mb 40f 55f
10:30 6 7 mph 1007.9mb 40f 55f
10:24 6 8 mph 1008mb 40f 55f
10:18 6 8 mph 1008.1mb 40f 53f
10:12 7 8 mph 1008.3mb 40f 53f
10:06 7 9 mph 1008.3mb 40f 53f
10:00 6 8 mph 1008.5mb 40f 53f
9:54 5 7 mph 1008.5mb 40f 53f
9:48 5 7 mph 1008.6mb 40f 53f
9:42 6 9 mph 1008.6mb 40f 53f
9:36 6 9 mph 1008.7mb 40f 52f
9:30 6 9 mph 1008.8mb 40f 52f
9:24 5 8 mph 1008.9mb 40f 53f
9:18 2 5 mph 1009mb 40f 52f
9:12 3 7 mph 1009.2mb 40f 52f
9:06 6 7 mph 1009.2mb 40f 51f
9:00 6 8 mph 1009.4mb 40f 51f
8:54 7 8 mph 1009.5mb 40f 51f
8:48 3 9 mph 1009.7mb 40f 51f
8:42 5 10 mph 1009.9mb 40f 51f
8:36 6 8 mph 1009.8mb 40f 51f
8:30 7 9 mph 1009.9mb 40f 52f
8:24 5 6 mph 1009.8mb 40f 52f
8:12 5 7 mph 1009.9mb 40f 51f
8:06 5 6 mph 1010mb 40f 51f
8:00 3 5 mph 1010.1mb 40f 51f
7:54 3 6 mph 1010.2mb 40f 51f
7:48 3 6 mph 1010.2mb 40f 50f
7:42 1 5 mph 1010.2mb 40f 50f
7:36 2 5 mph 1010.2mb 40f 50f
7:30 2 3 mph 1010.2mb 40f 49f
7:24 1 2 mph 1010.4mb 40f 50f
7:18  -  2 mph 1010.5mb 40f 50f
7:12 1 3 mph 1010.5mb 40f 50f
7:06 1 2 mph 1010.4mb 40f 49f
7:00 1 2 mph 1010.3mb 40f 49f
6:54 2 3 mph 1010.2mb 40f 48f
6:48 2 5 mph 1010.2mb 40f 48f
6:42 3
mph
1010.3mb 40f 48f
6:36 2 3 mph 1010.3mb 40f 48f
6:30 1 2 mph 1010.3mb 40f 48f
6:24 2 3 mph 1010.4mb 40f 48f
6:18 2 5 mph 1010.4mb 40f 48f
6:12 2 3 mph 1010.5mb 40f 48f
6:06 2 3 mph 1010.3mb 40f 48f
6:00  -  1 mph 1010.3mb 40f 49f
5:54  -  mph 1010.3mb 40f 50f
5:48  -  mph 1010.2mb 40f 49f
5:42  -  mph 1010.2mb 40f 49f
5:36  -  2 mph 1010.2mb 40f 49f
5:30 1 2 mph 1010.2mb 40f 49f
5:24 1
mph
1010.3mb 40f 50f
5:18  -  1 mph 1010.2mb 40f 50f
5:12 1 2 mph 1010.3mb 40f 50f
5:06 1 2 mph 1010.3mb 40f 50f
5:00 1
mph
1010.4mb 40f 49f
4:54  -  mph 1010.5mb 40f 49f
4:48  -  1 mph 1010.6mb 40f 49f
4:42 1
mph
1010.6mb 41f 49f
4:36  -  mph 1010.7mb 41f 50f
4:30  -  1 mph 1010.8mb 41f 50f
4:24  -  mph 1010.8mb 41f 50f
4:18  -  mph 1010.9mb 41f 50f
4:12  -  1 mph 1010.9mb 41f 50f
4:06  -  1 mph 1010.9mb 41f 50f
4:00  -  1 mph 1010.9mb 42f 50f
3:54  -  1 mph 1010.9mb 42f 49f
3:48  -  1 mph 1011mb 42f 50f
3:42  -  mph 1011.1mb 42f 50f
3:36  -  1 mph 1011.1mb 42f 50f
3:30 1
mph
1011mb 42f 50f
3:24  -  1 mph 1011.1mb 42f 50f
3:18  -  1 mph 1011mb 42f 50f
3:12 1 3 mph 1010.9mb 42f 50f
3:06  -  1 mph 1010.9mb 42f 50f
3:00  -  2 mph 1011.1mb 42f 50f
2:54 1 2 mph 1011.1mb 42f 50f
2:48  -  1 mph 1011.1mb 42f 50f
2:42 1 2 mph 1011.2mb 42f 50f
2:36  -  1 mph 1011.2mb 42f 50f
2:30  -  1 mph 1011.2mb 42f 49f
2:24  -  1 mph 1011.3mb 42f 50f
2:18  -  1 mph 1011.3mb 42f 50f
2:12  -  1 mph 1011.4mb 41f 50f
2:06  -  2 mph 1011.5mb 41f 49f
2:00  -  2 mph 1011.5mb 41f 49f
1:54 1 2 mph 1011.6mb 41f 48f
1:48 2 3 mph 1011.7mb 41f -
1:42 3 5 mph 1011.7mb 41f -
1:36 3 5 mph 1011.7mb 41f -
1:30 3 5 mph 1011.7mb 41f 49f
1:24 5 6 mph 1011.7mb 41f 49f
1:18 5 6 mph 1011.7mb 41f 50f
1:12 5 6 mph 1011.6mb 41f 50f
1:06 6
mph
1011.6mb 41f 50f
1:00 6
mph
1011.6mb 41f 49f
12:54 6 7 mph 1011.6mb 41f 50f
12:48 6 7 mph 1011.6mb - -
12:42 3 6 mph 1011.7mb - -
12:36 2 3 mph 1011.6mb - -
12:30 3
mph
1011.7mb 41f 49f
12:24 2 3 mph 1011.8mb 41f 50f
12:18 2 3 mph 1011.9mb 41f 50f
12:12 2
mph
1011.9mb 40f 50f
12:06 1 3 mph 1011.9mb 41f 49f
12:00 2
mph
1011.9mb 41f 49f
Fr 02/24 11:54  -  2 mph 1011.9mb 41f 49f
11:48 2
mph
1011.9mb 41f 50f
11:42 2
mph
1011.9mb 41f 50f
11:36  -  2 mph 1011.9mb 41f 49f
11:30 2 3 mph 1011.9mb 41f 49f
11:24  -  2 mph 1011.9mb 41f 49f
11:18  -  1 mph 1012mb 41f 49f
11:12  -  mph 1012.1mb 40f 49f
11:06  -  1 mph 1012.1mb 40f 48f
11:00 1 2 mph 1012.2mb 40f 48f
10:54 2 3 mph 1012.2mb 40f 48f
10:48 2
mph
1012.2mb 40f 49f
10:42 2
mph
1012.2mb 40f 49f
10:36 1 2 mph 1012.3mb 40f 48f
10:30 1 2 mph 1012.3mb 40f 48f
10:24 2 3 mph 1012.2mb 40f 49f
10:18 2 3 mph 1012.2mb 40f 49f
10:12  -  1 mph 1012.3mb 40f 50f
10:06  -  1 mph 1012.3mb 40f 49f
10:00  -  2 mph 1012.3mb 40f 49f
9:54 2 3 mph 1012.4mb 40f 49f
9:48 2 3 mph 1012.5mb 40f 50f
9:42  -  2 mph 1012.5mb 40f 49f
9:36 1 3 mph 1012.5mb 40f 49f
9:30 3 5 mph 1012.5mb 40f 49f
9:24 2 3 mph 1012.5mb 40f 49f
9:18 2 3 mph 1012.4mb 40f 49f
9:12 2 3 mph 1012.4mb 40f 49f
9:06 2 3 mph 1012.4mb 40f 49f
9:00  -  1 mph 1012.5mb 40f 49f
8:54  -  1 mph 1012.5mb 40f 49f
8:48  -  1 mph 1012.6mb 40f 49f
8:42  -  1 mph 1012.7mb 40f 49f
8:36  -  1 mph 1012.7mb 40f 49f
8:30  -  mph 1012.7mb 40f 48f
8:24  -  1 mph 1012.7mb 40f 48f
8:18  -  2 mph 1012.8mb 40f 49f
8:12 2 3 mph 1012.8mb 40f 48f
8:06 2 5 mph 1012.7mb 40f 48f
8:00 5
mph
1012.7mb 40f 48f
7:54 5 7 mph 1012.8mb 40f 49f
7:48 7
mph
1012.9mb 40f 48f
7:42 3 5 mph 1012.8mb 40f 48f
7:36 3 5 mph 1012.9mb 40f 48f
7:30 3 5 mph 1012.9mb 41f 47f
7:24 3 6 mph 1012.8mb 41f 47f
7:18 6 7 mph 1012.8mb 41f 48f
7:12 7
mph
1012.9mb 41f 48f
7:06 6 8 mph 1013mb 41f 47f
7:00 6 10 mph 1013mb 41f 48f
6:54 6 8 mph 1013mb 41f 47f
6:48 8 9 mph 1013.1mb 41f 48f
6:42 7 8 mph 1013mb 41f 49f
6:36 6 7 mph 1013mb 41f 49f
6:30 5 6 mph 1013mb 41f 49f
6:24 3 6 mph 1013mb 41f 49f
6:18 5 6 mph 1013mb 41f 49f
6:12 3 6 mph 1013mb 41f 48f
6:06 5 7 mph 1013mb 41f 48f
6:00 6 7 mph 1012.9mb 41f 48f
5:54 7 8 mph 1012.9mb 41f 49f
5:48 7 8 mph 1012.9mb - 49f
5:30 7 8 mph 1012.8mb 41f 48f
5:24 7 8 mph 1012.9mb 41f 48f
5:18 6 7 mph 1012.9mb 41f 49f
5:12 6 8 mph 1012.8mb 41f 50f
5:06 6 9 mph 1012.8mb 41f 51f
5:00 8 9 mph 1012.8mb 41f 52f
4:54 6 9 mph 1012.9mb 41f 52f
4:48 7 8 mph 1012.9mb 41f 53f
4:42 6 7 mph 1012.9mb 41f 54f
4:36 6 7 mph 1012.9mb 41f 53f
4:30 6 9 mph 1012.9mb 41f 52f
4:24 8 11 mph 1012.8mb 40f 51f
4:18 11 13 mph 1012.9mb 40f 50f
4:12 13 14 mph 1012.8mb 40f 50f
4:06 10 13 mph 1012.7mb 40f 51f
4:00 10 11 mph 1012.6mb 40f 51f
3:54 11 13 mph 1012.5mb 40f 52f
3:48 10 13 mph 1012.6mb 40f 53f
3:42 11 13 mph 1012.6mb 40f 53f
3:36 11 14 mph 1012.6mb 40f 53f
3:30 11
mph
1012.7mb 40f 52f
3:24 11 13 mph 1012.7mb 40f 53f
3:18 9 11 mph 1012.8mb 40f 53f
3:12 10 11 mph 1012.9mb 41f 53f
3:06 10 13 mph 1012.9mb 41f 54f
3:00 11 14 mph 1012.9mb 41f 53f
2:54 11 13 mph 1012.8mb 41f 54f
2:48 10 13 mph 1012.8mb 41f 54f
2:42 11 14 mph 1012.8mb 41f 55f
2:36 11 17 mph 1012.7mb 41f 59f
2:30 14 18 mph 1012.7mb 41f 64f
2:24 14 18 mph 1012.7mb 41f 63f
2:18 14 20 mph 1012.8mb 41f 64f
2:12 13 18 mph 1012.8mb 41f 64f
2:06 15 20 mph 1012.9mb 41f 63f
2:00 14 21 mph 1013mb 41f 64f
1:54 13 15 mph 1013mb 41f 63f
1:48 10 14 mph 1013mb 41f 59f
1:42 10 14 mph 1013mb 41f 55f
1:36 11 14 mph 1013mb 41f 54f
1:30 10 14 mph 1013.1mb 41f 54f
1:12 10 13 mph 1013.3mb 41f 55f
1:06 10 11 mph 1013.5mb 41f 54f
1:00 9 11 mph 1013.6mb 41f 55f
12:54 9 11 mph 1013.7mb 41f 54f
12:48 9 10 mph 1013.9mb 41f 54f
12:42 9 10 mph 1014.1mb 41f 54f
12:36 8 9 mph 1014.2mb 41f 54f
12:30 7 9 mph 1014.2mb 41f 53f
12:24 8 9 mph 1014.3mb 41f 52f
12:18 9 10 mph 1014.3mb 41f 51f
12:12 7 8 mph 1014.4mb 41f 52f
12:06 8 9 mph 1014.4mb 41f 53f
12:00 9 10 mph 1014.5mb 41f 51f
11:54 9 10 mph 1014.6mb 41f 52f
11:48 6 8 mph 1014.7mb 41f 53f
11:42 7 9 mph 1014.8mb 40f 52f
11:36 8 10 mph 1014.9mb 40f 52f
11:30 8 9 mph 1014.9mb 40f 52f
11:24 6 8 mph 1015mb 40f 53f
11:18 5 7 mph 1015mb 40f 54f
11:12 6 8 mph 1015mb 40f 53f
11:06 7 8 mph 1015.1mb 40f 53f
11:00 7 8 mph 1015.1mb 40f 53f
10:54 6 9 mph 1015.2mb 40f 53f
10:48 8
mph
1015.3mb 40f 52f
10:42 6 8 mph 1015.3mb 40f 52f
10:36 7 9 mph 1015.4mb 40f 52f
10:30 6 9 mph 1015.4mb 40f 52f
10:24 8 9 mph 1015.3mb 40f 52f
10:18 8 9 mph 1015.3mb 40f 53f
10:12 7 10 mph 1015.3mb 40f 52f
10:06 8 10 mph 1015.2mb 40f 53f
10:00 8 11 mph 1015.2mb 40f 53f
9:54 8 10 mph 1015.2mb 40f 53f
9:48 7 9 mph 1015.1mb 40f 53f
9:36 7 8 mph 1015.1mb 40f 52f
9:30 6 8 mph 1015.1mb 40f 51f
9:24 6
mph
1015.1mb 40f 51f
9:18 5 7 mph 1015.1mb 40f 50f
9:12 5 6 mph 1015.1mb 40f 50f
9:06 3
mph
1015mb 40f 50f
9:00 2 5 mph 1015mb 40f 50f
8:54 2 5 mph 1015mb 40f 50f
8:48 3 5 mph 1014.9mb 40f 49f
8:42 3 6 mph 1014.9mb 40f 49f
8:36 5 6 mph 1014.9mb 40f 48f
8:30 5 6 mph 1014.9mb 40f 47f
8:24 5 6 mph 1014.9mb 40f 47f
8:18 5 6 mph 1014.9mb 40f 46f
8:12 5 6 mph 1014.8mb 40f 46f
8:06 3 5 mph 1014.9mb 40f 46f
8:00 3 6 mph 1014.8mb 40f 46f
7:54 6
mph
1014.7mb 40f 45f
7:48 3 6 mph 1014.7mb 40f 45f
7:42 3 5 mph 1014.8mb 40f 45f
7:36 5 6 mph 1014.8mb 40f 45f
7:30 6 7 mph 1014.7mb 40f 44f
7:24 6 7 mph 1014.7mb 40f 44f
7:18 5
mph
1014.7mb 40f 43f
7:12 3
mph
1014.6mb 40f 43f
7:06 1 2 mph 1014.5mb 40f 42f
7:00 1 2 mph 1014.5mb 40f 42f
6:54 1
mph
1014.6mb 40f 43f
6:48  -  2 mph 1014.5mb 40f 43f
6:42 2
mph
1014.5mb 40f 43f
6:36 2
mph
1014.4mb 40f 43f
6:30 1 2 mph 1014.3mb 40f 43f
6:24 1 2 mph 1014.3mb 40f 43f
6:18  -  mph 1014.2mb 40f 43f
6:12  -  2 mph 1014.3mb 40f 43f
6:06 1 2 mph 1014.3mb 40f 43f
6:00  -  1 mph 1014.2mb 40f 43f
5:54 1
mph
1014.2mb 40f 43f
5:48  -  1 mph 1014.3mb 40f 44f
5:42  -  1 mph 1014.3mb 40f 44f
5:36  -  1 mph 1014.3mb 40f 43f
5:30  -  1 mph 1014.2mb 40f 44f
5:24  -  1 mph 1014.2mb 40f 44f
5:18  -  1 mph 1014.2mb 40f 44f
5:12 1
mph
1014.1mb 40f 43f
5:06  -  1 mph 1014.1mb 40f 43f
5:00  -  1 mph 1014mb 40f 43f
4:54  -  1 mph 1014mb 40f 43f
4:48  -  1 mph 1013.8mb 40f 43f
4:42 1 2 mph 1013.8mb 40f 43f
4:36  -  2 mph 1013.8mb 40f 43f
4:30 1
mph
1013.7mb 40f 43f
4:24  -  1 mph 1013.8mb 40f 44f
4:18  -  2 mph 1013.7mb 40f 44f
4:12 2
mph
1013.7mb 40f 44f
4:06 2
mph
1013.7mb 40f 43f
4:00  -  1 mph 1013.7mb 40f 44f
3:54  -  1 mph 1013.8mb 40f 44f
3:48 1 2 mph 1013.8mb 40f 44f
3:42 2 3 mph 1013.8mb 40f 45f
3:36 3 5 mph 1013.8mb 40f 45f
3:30 5 6 mph 1013.8mb 40f 45f
3:24 5 6 mph 1013.7mb 40f 44f
3:18 2 3 mph 1013.8mb 40f 43f
3:12 2 3 mph 1013.7mb 40f 44f
3:06 3
mph
1013.7mb 40f 44f
3:00 2 5 mph 1013.6mb 40f 43f
2:54 3
mph
1013.6mb 40f 43f
2:48 3 5 mph 1013.6mb 40f 43f
2:42 1 2 mph 1013.6mb 40f 44f
2:36 1 2 mph 1013.5mb 40f 44f
2:30 2 3 mph 1013.5mb 40f 44f
2:24  -  1 mph 1013.5mb 40f 45f
2:18  -  mph 1013.4mb 40f 44f
2:12  -  1 mph 1013.5mb 40f 44f
2:06 1 2 mph 1013.5mb 40f 45f
2:00 2
mph
1013.6mb 40f 45f
1:54 1 2 mph 1013.6mb 40f 44f
1:48  -  mph 1013.6mb 40f -
1:42  -  mph 1013.6mb 40f -
1:36  -  1 mph 1013.6mb 40f -
1:30  -  1 mph 1013.5mb 40f 45f
1:24  -  1 mph 1013.4mb 40f 45f
1:18 1 2 mph 1013.3mb 40f 44f
1:12 1 2 mph 1013.4mb 40f 44f
1:06  -  3 mph 1013.5mb 40f 45f
1:00 2 6 mph 1013.5mb 40f 46f
12:54 3 6 mph 1013.4mb 40f 45f
12:48 6 7 mph 1013.1mb 40f -
12:42 6 7 mph 1013.2mb 40f -
12:36 5 6 mph 1013.4mb 40f -
12:30 3 5 mph 1013.4mb 40f 44f
12:24 5
mph
1013.4mb 40f 44f
12:18 2
mph
1013.5mb 40f 44f
12:12 2
mph
1013.4mb 40f 44f
12:06 1 3 mph 1013.5mb 40f 44f
12:00 2 3 mph 1013.5mb 40f 44f
Do 02/23 11:54 1 2 mph 1013.5mb 40f 45f
11:48  -  2 mph 1013.3mb 40f 45f
11:42 2
mph
1013.1mb 40f 44f
11:36 1 2 mph 1013.1mb 40f 45f
11:30 3 6 mph 1012.8mb 40f 45f
11:24 5 6 mph 1012.8mb 40f 46f
11:18 5 6 mph 1012.8mb 40f 46f
11:12 3 5 mph 1012.8mb 40f 46f
11:06 5 6 mph 1012.8mb 40f 45f
11:00 5
mph
1012.7mb 40f 45f
10:54 2 3 mph 1012.8mb 40f 46f
10:48 3
mph
1012.8mb 40f 45f
10:42 5
mph
1012.8mb 40f 45f
10:36 2 5 mph 1012.9mb 40f 45f
10:30 5
mph
1012.9mb 40f 45f
10:24 2 5 mph 1013mb 40f 45f
10:18 3 6 mph 1012.9mb 40f 45f
10:12 5 6 mph 1012.9mb 40f 45f
10:06 6
mph
1012.8mb 40f 45f
10:00 3 6 mph 1012.9mb 40f 45f
9:54 5 7 mph 1012.8mb 40f 45f
9:48 6 7 mph 1012.7mb 40f 45f
9:42 5 6 mph 1012.6mb 40f 45f
9:36 3
mph
1012.7mb 40f 45f
9:30 3
mph
1012.6mb 40f 45f
9:24 3 5 mph 1012.6mb 40f 45f
9:18 3
mph
1012.7mb 40f 45f
9:12 2 5 mph 1012.6mb 40f 45f
9:06 5 6 mph 1012.5mb 40f 45f
9:00 2 3 mph 1012.6mb 40f 45f
8:54 2 3 mph 1012.6mb 40f 45f
8:48 2 5 mph 1012.6mb 40f 45f
8:42 6 7 mph 1012.4mb 40f 45f
8:36 6 7 mph 1012.3mb 40f 45f
8:30 6 7 mph 1012.4mb 40f 46f
8:24 7 8 mph 1012.2mb 40f 46f
8:18 8 10 mph 1012.2mb 40f 46f
8:12 7 8 mph 1012.1mb 40f 46f
8:06 7 8 mph 1012.2mb 40f 46f
8:00 7
mph
1012.3mb 40f 46f
7:54 7
mph
1012.3mb 40f 45f
7:48 7
mph
1012.3mb 40f 45f
7:42 5 6 mph 1012.3mb 40f 45f
7:36 5 6 mph 1012.3mb 40f 45f
7:30 5
mph
1012.3mb 40f 46f
7:24 3 5 mph 1012.2mb 40f 46f
7:18 3
mph
1012.2mb 40f 47f
7:12 3 6 mph 1012mb 40f 46f
7:06 5 6 mph 1012mb 40f 46f
7:00 5 6 mph 1012mb 40f 47f
6:54 5 7 mph 1012mb 40f 47f
6:48 5 6 mph 1011.9mb 40f 47f
6:42 6 7 mph 1011.9mb 40f 47f
6:36 3 6 mph 1011.7mb 40f 47f
6:30 2 3 mph 1011.7mb 40f 47f
6:24 3 6 mph 1011.6mb 40f 48f
6:18 3 7 mph 1011.6mb 40f 48f
6:12 5 7 mph 1011.4mb 40f 47f
6:06 5 7 mph 1011.2mb 40f 46f
6:00 6 8 mph 1011.1mb 40f 48f
5:54 6 7 mph 1011mb 40f 47f
5:48 7 10 mph 1010.7mb 40f 48f
5:42 8 9 mph 1010.7mb 40f 47f
5:36 8 10 mph 1010.8mb 40f 47f
5:30 7 8 mph 1010.7mb 40f 47f
5:24 7 9 mph 1010.6mb 40f 48f
5:18 7 8 mph 1010.4mb 40f 48f
5:12 8 10 mph 1010.2mb 40f 50f
5:06 7 9 mph 1010mb 40f 51f
5:00 8 10 mph 1010mb 40f 51f
4:54 9 11 mph 1010mb 40f 52f
4:48 7 10 mph 1009.9mb 40f 52f
4:42 6 9 mph 1009.8mb 40f 52f
4:36 6 10 mph 1009.7mb 40f 52f
4:30 7 9 mph 1009.7mb 40f 52f
4:24 6 10 mph 1009.5mb 40f 52f
4:18 8 10 mph 1009.6mb 40f 52f
4:12 6 8 mph 1009.6mb 40f 52f
4:06 6 9 mph 1009.6mb 40f 52f
4:00 7 9 mph 1009.3mb 40f 51f
3:54 5 9 mph 1009.5mb 40f 50f
3:48 5 9 mph 1009.5mb 40f 50f
3:42 8 10 mph 1009.4mb 40f 48f
3:36 8 9 mph 1009.6mb 40f 48f
3:30 7 8 mph 1009.6mb 40f 48f
3:24 7 9 mph 1009.6mb 40f 48f
3:18 9 10 mph 1009.6mb 40f 48f
3:12 8 10 mph 1009.6mb 40f 49f
3:06 8 9 mph 1009.6mb 40f 49f
3:00 8 10 mph 1009.7mb 40f 49f
2:54 8 10 mph 1009.7mb 40f 49f
2:48 8 9 mph 1009.8mb 40f 48f
2:42 7 8 mph 1009.8mb 40f 49f
2:36 7 8 mph 1009.8mb 40f 49f
2:30 7 8 mph 1009.8mb 40f 49f
2:24 6 8 mph 1009.9mb 40f 50f
2:18 6 7 mph 1009.9mb 40f 49f
2:12 5 6 mph 1009.9mb 40f 49f
2:06 5 7 mph 1009.9mb 40f 49f
2:00 5 6 mph 1010mb 40f 49f
1:54 6 9 mph 1010mb 40f 49f
1:48 6 8 mph 1010.1mb 40f 49f
1:42 5 7 mph 1010.1mb 40f 48f
1:36 3 7 mph 1010.1mb 40f 47f
1:30 5 9 mph 1010.2mb 40f 47f
1:24 5 7 mph 1010.2mb 40f 48f
1:18 6 7 mph 1010.2mb 40f 48f
1:12 5 7 mph 1010.3mb 40f 49f
1:06 3 7 mph 1010.3mb 40f 49f
1:00 6 7 mph 1010.4mb 40f 48f
12:54 6 7 mph 1010.6mb 40f 48f
12:42 5 6 mph 1010.8mb 40f 47f
12:36 5 7 mph 1010.8mb 40f 48f
12:24 6 8 mph 1011mb 40f 48f
12:18 8 9 mph 1011.1mb 40f 47f
12:12 7 9 mph 1011.2mb 40f 48f
12:06 7 9 mph 1011.3mb 40f 48f
11:54 6 7 mph 1011.4mb 40f 49f
11:48 6 8 mph 1011.3mb 40f 48f
11:42 6 7 mph 1011.5mb 40f 48f
11:36 6 8 mph 1011.6mb 40f 49f
11:30 7 9 mph 1011.7mb 40f 51f
11:24 8 10 mph 1011.8mb 40f 51f
11:18 7 10 mph 1012mb 40f 52f
11:12 9 14 mph 1012.2mb 40f 52f
11:06 10 15 mph 1012.2mb 40f 52f
11:00 9 15 mph 1012.3mb 40f 53f
10:54 7 11 mph 1012.4mb 40f 54f
10:48 8 10 mph 1012.5mb 40f 53f
10:36 6 7 mph 1012.5mb 40f 49f
10:30 5 6 mph 1012.6mb 40f 48f
10:24 6 8 mph 1012.6mb 40f 48f
10:18 5 7 mph 1012.6mb 40f 49f
10:12 6 8 mph 1012.7mb 40f 47f
10:06 6 7 mph 1012.7mb 40f 47f
10:00 5 7 mph 1012.6mb 40f 46f
9:54 6 7 mph 1012.7mb 40f 45f
9:48 6 7 mph 1012.7mb 40f 45f
9:42 6 7 mph 1012.6mb 40f 44f
9:36 6 7 mph 1012.6mb 40f 45f
9:30 5
mph
1012.7mb 40f 44f
9:24 5 6 mph 1012.6mb 40f 43f
9:18 5 6 mph 1012.6mb 40f 42f
9:12 3 5 mph 1012.6mb 40f 42f
9:06 5
mph
1012.6mb 40f 41f
9:00 2 3 mph 1012.6mb 40f 41f
8:54 2 3 mph 1012.8mb 40f 40f
8:48 2 5 mph 1012.8mb 40f 40f
8:42 1 2 mph 1012.7mb 40f 39f
8:36 2
mph
1012.7mb 40f 39f
8:30 1
mph
1012.7mb 40f 39f
8:24  -  1 mph 1012.7mb 40f 39f
8:18 1
mph
1012.6mb 40f 38f
8:12  -  mph 1012.7mb 40f 39f
8:06  -  2 mph 1012.6mb 40f 38f
8:00 1
mph
1012.6mb 40f 38f
7:54  -  mph 1012.6mb 40f 38f
7:48  -  1 mph 1012.7mb 40f 38f
7:42  -  2 mph 1012.7mb 40f 37f
7:36 1 2 mph 1012.7mb 40f 37f
7:30 2
mph
1012.6mb 40f 37f
7:24 1 2 mph 1012.6mb 40f 37f
7:18 2
mph
1012.6mb 40f 37f
7:12 1 2 mph 1012.6mb 40f 37f
7:06 2
mph
1012.6mb 40f 37f
7:00 1 2 mph 1012.5mb 40f 37f
6:54 1 2 mph 1012.5mb 40f 37f
6:48 1
mph
1012.4mb 40f 37f
6:42 1
mph
1012.3mb 40f 37f
6:36  -  mph 1012.2mb 40f 38f
6:30  -  1 mph 1012.2mb 40f 38f
6:24  -  1 mph 1012.1mb 40f 38f
6:18 1
mph
1012.1mb 40f 38f
6:12  -  1 mph 1012.1mb 40f 38f
6:06  -  1 mph 1012mb 40f 38f
6:00  -  1 mph 1012mb 40f 38f
5:54 1 2 mph 1012.1mb 40f 38f
5:48 2 3 mph 1012.1mb 40f 38f
5:42 3
mph
1012.1mb 40f 38f
5:36 2 5 mph 1012.1mb 40f 38f
5:30 3 5 mph 1012.1mb 40f 38f
5:24 2 3 mph 1012.2mb 40f 38f
5:18 2 5 mph 1012.2mb 40f 38f
5:12 3
mph
1012.1mb 40f 38f
5:06 3 5 mph 1012.1mb 40f 38f
5:00 3
mph
1012.1mb 40f 38f
4:54 1 2 mph 1012.1mb 40f 38f
4:48 2
mph
1012mb 40f 38f
3:54 2 3 mph 1011.9mb 40f 38f
3:48 2
mph
1011.9mb 40f 38f
2:54 1 2 mph 1012.3mb 40f 38f
2:48  -  mph 1012.4mb 40f 38f
1:54 1 3 mph 1012.2mb 40f 39f
1:48 3 6 mph 1012.2mb 40f 39f
12:54 2
mph
1012.2mb 40f 39f
12:48  -  3 mph 1012.3mb 40f 39f
Mi 02/22 11:54  -  mph 1012.3mb 40f 39f
11:48  -  1 mph 1012.3mb 40f 39f